Wind_Speed
22 22 22 21 20 20 19 19 18 16 15 15 14 13 13 14 15 16 17 17 18 20 21 21 20 19 19 18 18 18 17 16 15 15 15 15 15 15 15 15 16 16 17
25 25 25 25 24 23 23 22 21 21 19 18 18 18 17 17 17 17 18 19 20 21 22 23 23 23 21 21 20 20 20 20 19 18 17 17 17 16 16 16 16 17 17
29 29 28 27 27 25 25 24 24 24 23 22 22 22 22 22 22 21 21 21 21 22 23 24 25 25 25 24 23 23 23 23 23 22 20 19 19 18 17 18 18 18 17
36 36 35 33 31 29 28 27 27 27 27 27 27 26 26 27 26 25 24 24 24 24 24 25 27 27 27 27 27 26 26 26 26 25 24 22 21 19 19 19 20 19 18
42 42 42 41 38 35 33 30 30 30 31 31 31 31 30 30 30 30 29 28 27 27 27 27 28 29 30 29 28 28 28 28 28 27 27 26 24 22 20 20 21 21 19
47 47 47 46 44 41 37 35 34 34 34 34 34 33 32 32 32 32 32 32 31 31 31 30 30 31 31 31 30 29 29 29 29 29 29 29 27 25 22 21 21 21 20
52 52 52 51 49 45 40 38 37 36 36 36 36 34 33 33 33 33 34 34 34 33 33 33 33 33 33 33 32 32 31 31 31 31 31 31 30 28 25 23 22 21 21
56 57 56 54 52 48 44 40 40 39 38 37 36 35 33 34 35 34 35 35 35 35 35 35 34 34 35 35 35 34 33 33 33 33 32 32 31 30 28 25 23 22 22
55 57 57 56 54 49 45 43 41 40 38 37 36 35 34 34 35 35 35 37 36 36 36 36 36 35 36 37 37 36 35 34 33 34 33 33 33 33 31 28 26 24 24
54 55 53 53 53 49 45 42 39 37 36 35 35 35 36 36 35 33 33 35 36 35 35 35 36 37 37 38 38 37 36 34 33 33 34 34 35 35 33 31 29 27 25
54 49 46 46 44 44 41 38 36 35 34 34 34 35 36 36 35 32 29 31 33 33 34 34 35 36 36 37 37 37 36 35 33 33 34 35 36 36 36 34 32 30 27
52 47 43 39 38 38 36 34 34 34 33 34 35 35 35 34 32 30 27 27 30 31 32 33 33 34 35 35 37 37 37 36 35 35 35 36 37 37 38 37 35 33 30
48 43 40 38 36 34 32 33 33 33 33 34 35 35 34 32 30 28 26 26 28 30 31 32 32 33 35 36 37 38 37 37 36 36 37 37 38 38 38 38 38 36 33
44 40 39 37 35 32 32 32 33 33 33 34 33 32 31 29 28 27 27 27 27 29 31 32 33 34 35 37 39 39 39 39 37 37 37 37 38 39 38 38 38 39 36
43 40 38 38 37 34 33 33 33 33 33 32 30 29 28 27 27 27 27 28 28 29 30 31 33 35 36 37 39 39 40 40 39 39 38 38 38 39 39 39 38 39 38
41 39 36 38 38 35 33 33 33 32 30 29 28 27 27 27 27 27 28 29 29 30 30 30 31 33 34 37 38 39 40 40 40 39 39 39 40 40 40 40 39 38 38
37 35 33 34 34 33 32 31 30 29 28 28 28 28 28 28 29 29 29 30 30 30 31 30 30 31 31 33 35 38 38 39 40 40 40 40 40 41 41 40 38 36 37
33 32 31 31 31 30 29 28 28 27 27 28 29 29 30 30 31 31 32 32 33 32 32 31 31 30 29 29 30 32 35 38 38 39 39 40 39 39 39 38 37 35 34
31 31 31 30 28 27 26 26 27 27 27 28 29 30 31 32 32 33 34 35 35 35 34 34 33 31 29 27 27 27 28 31 34 35 36 36 36 36 35 35 34 32 32
29 29 27 26 24 24 24 25 25 26 27 28 29 31 31 32 33 34 35 36 36 37 37 36 36 34 32 30 28 26 25 26 27 29 31 33 33 32 31 32 32 31 30
23 22 21 21 21 22 23 24 25 26 26 28 29 30 31 32 33 34 35 36 36 36 37 37 37 36 34 33 30 28 25 24 23 24 26 27 27 27 28 29 30 30 30
16 17 18 19 21 22 23 24 24 25 26 27 29 30 31 32 33 34 35 35 35 35 36 35 35 35 34 33 32 31 28 25 23 21 21 22 23 24 24 24 26 27 28
15 16 18 19 20 21 22 23 23 24 26 27 28 29 30 31 32 33 33 34 34 34 34 34 34 33 33 32 33 32 31 29 27 24 21 20 20 22 23 23 24 25 27
17 18 19 20 20 20 21 21 22 23 24 25 26 27 29 30 31 31 31 32 33 33 34 34 34 33 33 32 32 32 32 31 30 29 27 23 21 20 22 25 25 25 26
18 18 18 18 17 16 17 17 18 19 20 21 21 22 23 24 26 27 28 29 30 31 32 33 34 34 34 33 33 32 32 32 32 32 32 29 27 25 24 26 29 28 28
16 15 14 13 13 13 13 13 14 15 16 16 18 19 20 22 24 25 26 28 29 29 30 31 31 32 32 32 33 33 33 33 33 33 34 33 31 30 29 28 28 29 29
Wind_Direction
282 279 275 273 271 267 266 266 268 276 285 294 303 312 321 323 320 316 309 301 291 282 275 272 272 272 275 277 277 276 275 276 276 275 276 278 279 278 278 276 274 273 274
279 277 275 273 272 269 270 269 271 276 280 285 291 298 305 311 311 309 305 302 297 291 283 275 271 269 270 272 275 277 277 275 273 271 271 273 275 276 276 276 274 273 273
279 276 274 273 272 271 270 269 271 275 278 281 285 290 295 299 301 301 300 298 296 293 288 281 273 269 267 268 271 275 276 276 274 271 269 270 272 273 274 275 274 274 272
278 277 275 274 274 272 269 269 272 275 278 281 284 287 290 291 294 294 293 291 290 288 287 283 277 270 267 267 268 271 273 273 273 271 269 268 269 271 272 272 272 272 273
275 275 274 275 274 272 270 270 274 277 279 281 283 285 286 288 289 290 289 287 285 283 282 280 278 273 269 266 267 269 270 270 270 269 267 265 266 268 270 270 270 271 273
271 271 271 272 273 272 269 270 273 276 277 279 281 283 284 285 286 287 287 286 284 281 279 277 275 274 272 268 267 267 269 269 269 267 265 263 262 264 266 268 268 269 271
269 267 267 268 269 268 267 269 273 275 276 277 278 280 282 284 284 285 285 285 283 280 277 275 273 271 271 269 268 267 267 267 268 267 264 261 259 260 262 265 265 266 268
269 266 263 264 264 265 265 267 271 273 273 275 277 279 281 283 285 285 285 283 282 280 277 275 272 269 268 267 267 267 267 267 267 266 263 259 257 257 258 262 263 265 267
274 270 263 260 260 259 260 263 266 269 269 271 275 279 282 284 285 286 285 283 282 280 277 274 271 267 265 264 264 265 267 268 267 264 261 258 256 255 256 258 260 263 265
282 277 266 259 256 256 258 259 262 263 266 269 274 279 283 285 286 286 284 283 282 281 278 274 271 267 264 263 262 262 264 266 266 264 261 258 255 254 254 256 258 260 264
286 281 270 258 254 253 255 255 256 259 264 269 274 278 283 285 287 287 283 281 281 281 279 276 272 268 265 263 262 262 262 263 264 265 262 259 255 253 254 256 257 258 261
286 283 276 261 256 253 252 251 254 258 263 269 274 278 281 283 284 284 281 278 279 280 279 277 273 270 267 264 263 263 263 263 264 265 263 261 258 255 253 254 255 257 259
283 281 273 264 258 253 250 251 255 259 265 270 274 277 278 279 280 279 277 275 276 278 278 277 274 271 268 265 265 263 264 263 264 265 263 262 261 259 256 254 253 255 256
278 278 269 261 255 253 253 254 257 261 268 272 273 274 275 275 275 275 275 274 274 274 275 276 275 273 271 268 267 265 264 265 265 265 264 262 261 259 258 255 254 252 252
269 272 270 262 255 252 253 256 259 265 268 270 270 271 272 272 271 271 272 274 274 274 274 275 276 275 273 270 269 268 265 264 264 264 263 263 262 260 260 258 258 254 248
263 264 267 262 255 251 253 257 262 264 266 267 267 268 268 270 270 270 271 273 275 276 277 277 278 279 277 272 269 268 266 264 263 263 263 263 263 261 260 260 259 256 248
257 260 259 257 253 253 255 259 262 262 264 265 266 267 268 269 270 270 270 272 274 275 277 280 283 283 282 278 272 268 266 265 264 263 263 264 263 261 261 259 257 255 251
250 252 251 251 251 253 257 260 261 261 262 264 266 268 269 269 269 269 269 270 272 273 276 280 282 285 285 284 279 274 269 266 264 263 262 261 261 261 258 255 254 251 247
245 246 246 248 249 254 257 260 261 262 264 266 268 269 269 270 270 270 270 270 270 272 273 276 278 280 283 286 285 280 273 266 264 261 259 258 257 255 253 250 247 242 239
239 238 240 245 250 255 259 262 264 266 267 269 270 270 270 271 272 272 271 270 270 271 272 273 274 276 279 281 285 284 277 268 263 258 253 250 248 245 242 241 238 234 232
238 239 243 250 256 261 264 266 268 270 271 272 272 272 272 272 273 273 272 271 271 271 271 271 272 273 274 275 278 280 279 271 267 258 249 242 236 236 238 238 236 232 229
254 255 256 259 262 266 269 271 272 273 273 273 273 274 273 273 273 274 273 272 272 272 272 272 272 272 272 272 272 274 275 270 266 260 255 241 236 236 235 235 233 229 225
270 268 267 268 269 270 271 272 273 273 273 274 274 274 274 274 275 275 274 274 274 274 274 274 274 273 272 271 270 270 269 268 265 260 259 250 243 241 237 235 233 229 226
275 272 272 273 272 272 272 271 271 272 273 274 276 276 277 277 277 276 276 277 276 276 277 276 276 275 273 272 269 267 266 265 262 259 258 257 254 250 243 237 235 231 229
274 274 274 271 271 271 270 269 269 271 274 276 279 281 281 282 283 283 283 282 281 281 280 279 279 278 276 274 271 268 265 264 262 259 258 257 255 254 251 242 236 234 232
276 275 270 264 262 263 263 264 268 273 277 280 283 286 288 289 288 288 287 286 285 284 283 281 280 279 277 276 274 271 268 265 263 260 258 256 254 251 249 245 239 234 235
Height
5909 5907 5906 5905 5903 5902 5901 5901 5900 5899 5899 5897 5896 5895 5893 5891 5890 5888 5887 5885 5883 5882 5881 5881 5880 5880 5879 5879 5878 5878 5877 5877 5876 5876 5876 5876 5875 5875 5874 5874 5873 5873 5873
5904 5903 5901 5900 5899 5898 5897 5896 5896 5895 5894 5893 5892 5890 5889 5887 5886 5884 5883 5881 5880 5878 5877 5876 5876 5875 5875 5875 5874 5874 5873 5872 5872 5872 5872 5872 5872 5871 5871 5870 5870 5870 5869
5898 5897 5896 5895 5894 5893 5892 5891 5891 5890 5889 5888 5887 5885 5884 5882 5881 5880 5878 5877 5875 5874 5873 5872 5871 5870 5870 5869 5869 5869 5868 5868 5867 5867 5867 5867 5867 5867 5867 5866 5866 5866 5866
5892 5890 5889 5888 5888 5887 5886 5885 5885 5884 5883 5882 5881 5880 5878 5877 5875 5874 5872 5871 5870 5869 5868 5867 5866 5865 5864 5864 5863 5863 5863 5863 5862 5862 5862 5862 5862 5862 5862 5862 5861 5861 5861
5883 5882 5880 5880 5880 5880 5879 5878 5878 5877 5876 5875 5874 5873 5871 5870 5868 5867 5866 5864 5863 5862 5861 5860 5859 5859 5858 5858 5857 5857 5857 5857 5857 5856 5856 5856 5856 5857 5857 5856 5856 5856 5856
5874 5872 5871 5870 5870 5871 5870 5870 5870 5869 5868 5867 5866 5865 5864 5862 5861 5859 5858 5856 5856 5855 5854 5853 5852 5852 5851 5851 5851 5851 5851 5851 5850 5850 5850 5850 5851 5851 5851 5851 5851 5851 5851
5862 5860 5859 5859 5859 5860 5860 5860 5860 5860 5859 5858 5857 5857 5857 5855 5853 5851 5849 5848 5847 5846 5846 5845 5844 5844 5843 5843 5844 5844 5844 5844 5844 5844 5843 5843 5844 5845 5845 5845 5845 5845 5845
5850 5848 5846 5847 5847 5848 5850 5851 5851 5851 5850 5849 5848 5848 5849 5848 5845 5843 5841 5839 5838 5837 5837 5836 5836 5836 5835 5835 5836 5836 5837 5837 5837 5836 5836 5836 5837 5838 5838 5839 5839 5839 5839
5836 5833 5832 5832 5833 5836 5839 5841 5842 5842 5841 5841 5839 5839 5839 5839 5837 5836 5832 5830 5828 5827 5827 5827 5827 5827 5826 5826 5828 5828 5828 5829 5829 5829 5829 5829 5829 5830 5831 5832 5832 5833 5833
5824 5820 5818 5819 5821 5825 5828 5830 5831 5832 5832 5832 5831 5830 5829 5828 5827 5827 5824 5821 5819 5818 5817 5817 5817 5817 5817 5817 5819 5820 5820 5820 5821 5820 5820 5821 5821 5822 5823 5825 5825 5826 5826
5814 5810 5807 5807 5810 5813 5817 5819 5822 5823 5823 5823 5823 5821 5820 5818 5817 5817 5816 5813 5810 5809 5808 5808 5808 5808 5808 5809 5809 5810 5811 5811 5812 5812 5812 5812 5813 5814 5815 5817 5818 5819 5819
5803 5802 5800 5799 5801 5804 5807 5809 5812 5813 5814 5814 5813 5812 5811 5810 5809 5808 5808 5806 5803 5801 5800 5799 5799 5800 5800 5800 5800 5801 5802 5802 5803 5803 5803 5804 5804 5805 5806 5808 5810 5811 5812
5792 5791 5791 5792 5793 5795 5797 5800 5803 5804 5805 5805 5804 5803 5802 5801 5800 5800 5799 5798 5796 5794 5792 5791 5791 5791 5791 5791 5792 5792 5792 5793 5794 5794 5794 5794 5795 5796 5797 5799 5800 5802 5803
5781 5782 5782 5783 5784 5786 5788 5791 5793 5795 5795 5795 5795 5794 5793 5792 5792 5791 5791 5790 5789 5787 5785 5784 5783 5782 5782 5782 5782 5782 5783 5783 5784 5784 5784 5784 5785 5786 5787 5789 5790 5793 5795
5772 5773 5773 5774 5775 5777 5779 5782 5784 5785 5786 5785 5785 5785 5785 5784 5784 5783 5783 5782 5782 5780 5779 5777 5775 5774 5773 5773 5772 5772 5772 5772 5773 5774 5775 5775 5775 5776 5777 5779 5781 5782 5785
5760 5762 5763 5765 5766 5768 5770 5773 5775 5775 5776 5776 5776 5777 5777 5776 5776 5775 5775 5774 5773 5772 5771 5769 5767 5765 5764 5763 5762 5762 5762 5762 5763 5764 5764 5765 5765 5766 5767 5769 5771 5772 5775
5749 5751 5753 5755 5757 5759 5762 5764 5765 5766 5767 5768 5768 5768 5768 5768 5768 5767 5767 5766 5765 5764 5763 5761 5759 5757 5755 5753 5752 5752 5751 5751 5752 5753 5754 5755 5755 5756 5757 5759 5761 5763 5765
5738 5741 5743 5746 5749 5751 5753 5755 5756 5758 5758 5759 5759 5759 5759 5759 5759 5759 5758 5758 5757 5756 5755 5753 5751 5749 5747 5744 5743 5742 5741 5741 5742 5743 5743 5744 5744 5745 5747 5749 5751 5754 5756
5729 5733 5736 5738 5741 5743 5745 5747 5748 5749 5750 5751 5750 5750 5750 5750 5750 5750 5749 5749 5748 5747 5746 5745 5743 5741 5739 5737 5735 5733 5732 5731 5732 5732 5733 5733 5734 5736 5737 5740 5742 5745 5748
5722 5725 5728 5731 5733 5736 5738 5739 5740 5741 5742 5742 5742 5742 5742 5741 5741 5741 5740 5740 5739 5738 5737 5736 5735 5733 5732 5731 5729 5727 5725 5724 5723 5723 5724 5724 5726 5727 5729 5732 5734 5737 5740
5717 5719 5722 5724 5727 5729 5730 5732 5733 5733 5734 5734 5734 5733 5733 5732 5732 5732 5731 5730 5730 5729 5728 5727 5726 5725 5724 5723 5722 5721 5719 5718 5716 5716 5716 5717 5719 5720 5722 5724 5727 5729 5732
5712 5714 5716 5719 5721 5722 5724 5725 5726 5726 5726 5726 5726 5725 5724 5724 5723 5723 5722 5721 5720 5719 5718 5717 5717 5716 5715 5715 5715 5714 5713 5712 5710 5710 5710 5711 5712 5713 5715 5717 5719 5722 5725
5709 5710 5712 5714 5715 5716 5717 5718 5719 5719 5718 5718 5718 5717 5716 5715 5715 5714 5713 5712 5711 5710 5710 5709 5708 5707 5706 5706 5706 5706 5705 5705 5704 5703 5703 5703 5705 5706 5708 5709 5712 5715 5718
5705 5706 5707 5709 5709 5710 5711 5711 5711 5711 5711 5711 5710 5709 5709 5708 5707 5706 5705 5704 5703 5701 5700 5699 5699 5698 5697 5697 5697 5697 5697 5697 5697 5696 5696 5697 5698 5699 5701 5703 5705 5707 5710
5701 5701 5702 5703 5703 5704 5704 5705 5705 5705 5705 5705 5704 5703 5702 5701 5700 5698 5697 5696 5694 5693 5691 5690 5689 5688 5687 5687 5687 5687 5687 5688 5688 5688 5689 5690 5691 5692 5694 5695 5697 5700 5703
5696 5696 5697 5698 5699 5699 5700 5700 5700 5700 5700 5700 5699 5698 5697 5695 5694 5692 5690 5688 5687 5685 5683 5681 5680 5679 5679 5678 5678 5677 5677 5678 5678 5679 5681 5682 5684 5685 5687 5688 5690 5692 5695